• In Moldova, Republic
  • List of Countries
  • For 7 days
  • Water Temperature
  • Satellite Maps
  • Weather Map
  • Weather Widgets
  • user-avatar
    Login

    Hourly Weather Lankaran

    Today, 24 July, Monday

    Time Temperature Precipitation Wind Pressure Humidity
    00:00 +18°C° 0 mm 3 mps 632 mmHg 64%
    01:00 +18°C° 0 mm 3 mps 632 mmHg 69%
    02:00 +18°C° 0 mm 3 mps 632 mmHg 73%
    03:00 +18°C° 0 mm 4 mps 632 mmHg 87%
    04:00 +18°C° 0.1 mm 3 mps 632 mmHg 86%
    05:00 +18°C° 0.1 mm 3 mps 632 mmHg 86%
    06:00 +18°C° 0.1 mm 3 mps 633 mmHg 85%
    07:00 +19°C° 0.2 mm 4 mps 633 mmHg 82%
    08:00 +19°C° 0.2 mm 4 mps 633 mmHg 78%
    09:00 +20°C° 0.2 mm 4 mps 633 mmHg 75%
    10:00 +21°C° 0.1 mm 4 mps 633 mmHg 73%
    11:00 +21°C° 0.1 mm 4 mps 633 mmHg 70%
    12:00 +22°C° 0.1 mm 4 mps 633 mmHg 68%
    13:00 +22°C° 0.1 mm 4 mps 633 mmHg 67%
    14:00 +23°C° 0.1 mm 4 mps 632 mmHg 65%
    15:00 +23°C° 0.1 mm 4 mps 632 mmHg 64%
    16:00 +22°C° 0 mm 4 mps 632 mmHg 68%
    17:00 +21°C° 0 mm 4 mps 632 mmHg 73%
    18:00 +20°C° 0 mm 3 mps 631 mmHg 77%
    19:00 +19°C° 0 mm 3 mps 631 mmHg 80%
    20:00 +18°C° 0 mm 3 mps 631 mmHg 83%
    21:00 +18°C° 0 mm 2 mps 632 mmHg 86%
    22:00 +17°C° 0 mm 2 mps 632 mmHg 87%
    23:00 +17°C° 0 mm 2 mps 631 mmHg 88%

    Tomorrow, 25 July, Tuesday

    Time Temperature Precipitation Wind Pressure Humidity
    00:00 +17°C° 0 mm 2 mps 631 mmHg 88%
    01:00 +17°C° 0 mm 2 mps 631 mmHg 89%
    02:00 +16°C° 0 mm 2 mps 631 mmHg 89%
    03:00 +16°C° 0 mm 2 mps 631 mmHg 90%
    04:00 +16°C° 0 mm 2 mps 631 mmHg 87%
    05:00 +17°C° 0 mm 2 mps 631 mmHg 84%
    06:00 +18°C° 0 mm 1 mps 631 mmHg 82%
    07:00 +19°C° 0 mm 2 mps 632 mmHg 72%
    08:00 +21°C° 0 mm 2 mps 632 mmHg 63%
    09:00 +24°C° 0 mm 3 mps 632 mmHg 54%
    10:00 +25°C° 0 mm 3 mps 632 mmHg 49%
    11:00 +26°C° 0 mm 3 mps 632 mmHg 45%
    12:00 +28°C° 0 mm 3 mps 632 mmHg 40%
    13:00 +28°C° 0 mm 3 mps 632 mmHg 40%
    14:00 +28°C° 0 mm 3 mps 632 mmHg 40%
    15:00 +28°C° 0 mm 3 mps 631 mmHg 41%
    16:00 +27°C° 0 mm 3 mps 631 mmHg 46%
    17:00 +25°C° 0 mm 3 mps 630 mmHg 51%
    18:00 +24°C° 0 mm 3 mps 630 mmHg 57%
    19:00 +23°C° 0 mm 2 mps 630 mmHg 63%
    20:00 +20°C° 0 mm 2 mps 630 mmHg 69%
    21:00 +19°C° 0 mm 1 mps 630 mmHg 76%
    22:00 +19°C° 0 mm 1 mps 630 mmHg 74%
    23:00 +19°C° 0 mm 1 mps 630 mmHg 73%

    Day after tomorrow, 26 July, Wednesday

    Time Temperature Precipitation Wind Pressure Humidity
    00:00 +18°C° 0 mm 1 mps 630 mmHg 71%
    01:00 +18°C° 0 mm 1 mps 630 mmHg 70%
    02:00 +16°C° 0 mm 1 mps 630 mmHg 69%
    03:00 +16°C° 0 mm 1 mps 630 mmHg 68%
    04:00 +18°C° 0 mm 1 mps 630 mmHg 64%
    05:00 +19°C° 0 mm 1 mps 631 mmHg 60%
    06:00 +20°C° 0 mm 1 mps 631 mmHg 56%
    07:00 +22°C° 0 mm 1 mps 632 mmHg 48%
    08:00 +24°C° 0 mm 2 mps 632 mmHg 41%
    09:00 +26°C° 0 mm 2 mps 633 mmHg 33%
    10:00 +27°C° 0 mm 2 mps 633 mmHg 31%
    11:00 +28°C° 0 mm 3 mps 633 mmHg 29%
    12:00 +29°C° 0 mm 3 mps 633 mmHg 27%
    13:00 +29°C° 0 mm 3 mps 633 mmHg 28%
    14:00 +29°C° 0 mm 4 mps 633 mmHg 30%
    15:00 +29°C° 0 mm 4 mps 632 mmHg 31%
    16:00 +28°C° 0 mm 3 mps 632 mmHg 35%
    17:00 +26°C° 0 mm 3 mps 632 mmHg 40%
    18:00 +25°C° 0 mm 3 mps 632 mmHg 44%
    19:00 +23°C° 0 mm 2 mps 632 mmHg 49%
    20:00 +20°C° 0 mm 2 mps 632 mmHg 54%
    21:00 +20°C° 0 mm 1 mps 632 mmHg 59%
    22:00 +20°C° 0 mm 1 mps 632 mmHg 57%
    23:00 +19°C° 0 mm 1 mps 632 mmHg 55%

    27 July, Thursday

    Time Temperature Precipitation Wind Pressure Humidity
    00:00 +19°C° 0 mm 1 mps 632 mmHg 54%
    01:00 +19°C° 0 mm 1 mps 632 mmHg 53%
    02:00 +19°C° 0 mm 1 mps 632 mmHg 52%
    03:00 +18°C° 0 mm 1 mps 632 mmHg 51%
    04:00 +19°C° 0 mm 1 mps 632 mmHg 48%
    05:00 +20°C° 0 mm 1 mps 633 mmHg 46%
    06:00 +21°C° 0 mm 1 mps 633 mmHg 44%
    07:00 +23°C° 0 mm 1 mps 634 mmHg 38%
    08:00 +25°C° 0 mm 2 mps 634 mmHg 33%
    09:00 +27°C° 0 mm 2 mps 635 mmHg 28%
    10:00 +28°C° 0 mm 2 mps 635 mmHg 26%
    11:00 +30°C° 0 mm 3 mps 635 mmHg 24%
    12:00 +31°C° 0 mm 3 mps 635 mmHg 22%
    13:00 +31°C° 0 mm 3 mps 635 mmHg 23%
    14:00 +31°C° 0 mm 3 mps 634 mmHg 23%
    15:00 +32°C° 0 mm 4 mps 634 mmHg 23%
    16:00 +30°C° 0 mm 3 mps 634 mmHg 26%
    17:00 +29°C° 0 mm 3 mps 633 mmHg 29%
    18:00 +28°C° 0 mm 3 mps 633 mmHg 32%
    19:00 +26°C° 0 mm 2 mps 633 mmHg 38%
    20:00 +24°C° 0 mm 2 mps 633 mmHg 43%
    21:00 +22°C° 0 mm 1 mps 633 mmHg 49%
    22:00 +22°C° 0 mm 1 mps 633 mmHg 48%
    23:00 +21°C° 0 mm 1 mps 633 mmHg 47%

    28 July, Friday

    Time Temperature Precipitation Wind Pressure Humidity
    00:00 +21°C° 0 mm 1 mps 633 mmHg 47%
    01:00 +21°C° 0 mm 1 mps 633 mmHg 46%
    02:00 +21°C° 0 mm 1 mps 633 mmHg 45%
    03:00 +21°C° 0 mm 1 mps 633 mmHg 44%
    04:00 +22°C° 0 mm 1 mps 633 mmHg 42%
    05:00 +23°C° 0 mm 1 mps 633 mmHg 40%
    06:00 +24°C° 0 mm 1 mps 634 mmHg 38%
    07:00 +26°C° 0 mm 1 mps 634 mmHg 34%
    08:00 +28°C° 0 mm 2 mps 635 mmHg 29%
    09:00 +30°C° 0 mm 2 mps 635 mmHg 25%
    10:00 +31°C° 0 mm 3 mps 635 mmHg 23%
    11:00 +34°C° 0 mm 3 mps 635 mmHg 22%
    12:00 +35°C° 0 mm 3 mps 635 mmHg 20%
    13:00 +35°C° 0 mm 3 mps 635 mmHg 21%
    14:00 +35°C° 0 mm 3 mps 635 mmHg 22%
    15:00 +35°C° 0 mm 3 mps 634 mmHg 23%
    16:00 +34°C° 0 mm 3 mps 634 mmHg 28%
    17:00 +33°C° 0 mm 3 mps 634 mmHg 33%
    18:00 +30°C° 0 mm 3 mps 633 mmHg 38%
    19:00 +28°C° 0 mm 2 mps 633 mmHg 46%
    20:00 +26°C° 0 mm 2 mps 633 mmHg 54%
    21:00 +24°C° 0 mm 1 mps 633 mmHg 61%
    22:00 +24°C° 0 mm 1 mps 633 mmHg 59%
    23:00 +24°C° 0 mm 2 mps 633 mmHg 58%

    29 July, Saturday

    Time Temperature Precipitation Wind Pressure Humidity
    00:00 +24°C° 0 mm 2 mps 633 mmHg 56%
    01:00 +23°C° 0 mm 2 mps 633 mmHg 53%
    02:00 +23°C° 0 mm 1 mps 633 mmHg 51%
    03:00 +23°C° 0 mm 1 mps 633 mmHg 48%
    04:00 +24°C° 0 mm 1 mps 633 mmHg 46%
    05:00 +24°C° 0 mm 1 mps 634 mmHg 44%
    06:00 +25°C° 0 mm 1 mps 634 mmHg 42%
    07:00 +27°C° 0 mm 1 mps 635 mmHg 37%
    08:00 +29°C° 0 mm 2 mps 635 mmHg 33%
    09:00 +31°C° 0 mm 2 mps 636 mmHg 28%
    10:00 +34°C° 0 mm 2 mps 636 mmHg 27%
    11:00 +35°C° 0 mm 3 mps 636 mmHg 25%
    12:00 +36°C° 0 mm 3 mps 636 mmHg 23%
    13:00 +36°C° 0 mm 3 mps 636 mmHg 25%
    14:00 +36°C° 0 mm 3 mps 635 mmHg 26%
    15:00 +36°C° 0 mm 3 mps 635 mmHg 27%
    16:00 +35°C° 0 mm 3 mps 635 mmHg 33%
    17:00 +33°C° 0 mm 3 mps 635 mmHg 38%
    18:00 +31°C° 0 mm 3 mps 634 mmHg 43%
    19:00 +29°C° 0 mm 2 mps 634 mmHg 48%
    20:00 +28°C° 0 mm 2 mps 634 mmHg 53%
    21:00 +27°C° 0 mm 1 mps 634 mmHg 58%
    22:00 +26°C° 0 mm 1 mps 634 mmHg 57%
    23:00 +26°C° 0 mm 1 mps 634 mmHg 56%
    Show more